Disclaimer

Please do not use the information listed here in-flight or in-navigation, as they are not provided to us by the airports but are provided by volunteers, so they might be outdated.

Search


Regions


Airport information page

Radio informations:
MONTPELLIER TWR - 118.2 MHz
MONTPELLIER GND - 121.95 MHz
MONTPELLIER ATIS - 124.125 MHz
MONTPELLIER APP - 120.375 MHz

Airport informations:
Latitude: 43° 34' 34.30" N
Longitude: 003° 57' 46.85" E
Elevation: 17 feet - 5 meters
Operating hours: 24 hour operations
Operating agency: Civil government, landing fees and diplomatic clearance may be required
Timezone: UTC+1(+2DT) - Last Sunday in March to last Sunday in October
Fuel: Jet A1, without icing nhibitor.

100/130 MIL Spec, low lead, aviation gasoline (BLUE)

Runway information:
13R/31L - 3609 x 98 feet< - >1100 x 30 meters
13L/31R - 8530 x 164 feet< - >2600 x 50 meters

Recent METARs:
LFMT 212100Z AUTO 31007KT CAVOK 06/M02 Q1017 NOSIG
LFMT 212130Z AUTO 31008KT CAVOK 06/M03 Q1017 NOSIG
LFMT 212200Z AUTO 30004KT CAVOK 05/M03 Q1016 NOSIG

Airport on the map: